Tracking 28794 objects as of 19-Apr-2024
HD Live streaming from Space Station
objects crossing your sky now

DELTA 1 DEB

Track DELTA 1 DEB now!
10-day predictions


NORAD ID: 7183
Int'l Code: 1973-086EU
Perigee: 1,293.9 km
Apogee: 1,492.0 km
Inclination: 102.4 °
Period: 113.5 minutes
Semi major axis: 7763 km
RCS: 0.1134 m2 (medium)
Launch date: November 6, 1973
Source: United States (US)
Launch site: AIR FORCE WESTERN TEST RANGE (AFWTR)

Note: This is SATELLITE DEBRIS
Your satellite tracking list
Your tracking list is empty




NASA's NSSDC Master Catalog

Two Line Element Set (TLE):
1 07183U 73086EU  24109.82981389  .00001163  00000-0  59947-2 0  9994
2 07183 102.3704  71.8615 0127616 347.5555  80.6507 12.69047264324481
Source of the keplerian elements: AFSPC